UAL524 KLAX-KSFO

Flight info

Callsign UAL524
Flight time N/A
Altitude 34000
Route SUMMR2 STOKD SERFR SERFR4
Aircraft B77W/H-SDE1E2E3FGHIJ2J3J4J5M1RWXY/LB1D1

Departure

Time 2026-04-26 07:52
Airport Los Angeles International Airport (KLAX)

Arrival

Time N/A
Airport San Francisco International Airport (KSFO)
Time Latitude Longitude Altitude Speed Heading
2026-04-26 07:18 33.94068 -118.40030 100 ft 0 kts 81°
2026-04-26 07:41 33.94065 -118.40032 100 ft 3 kts 109°
2026-04-26 07:42 33.94060 -118.40025 101 ft 3 kts 124°
2026-04-26 07:42 33.94066 -118.40036 100 ft 3 kts 89°
2026-04-26 07:42 33.94064 -118.40054 99 ft 3 kts 94°
2026-04-26 07:42 33.94065 -118.40065 100 ft 3 kts 130°
2026-04-26 07:43 33.94070 -118.40072 99 ft 2 kts 168°
2026-04-26 07:43 33.94074 -118.40073 100 ft 2 kts 173°
2026-04-26 07:43 33.94064 -118.40071 100 ft 2 kts 173°
2026-04-26 07:43 33.94062 -118.40071 101 ft 1 kts 173°
2026-04-26 07:46 33.94061 -118.40071 101 ft 0 kts 173°
2026-04-26 07:46 33.94051 -118.40069 100 ft 3 kts 173°
2026-04-26 07:46 33.94015 -118.40064 103 ft 7 kts 173°
2026-04-26 07:46 33.93957 -118.40055 105 ft 10 kts 172°
2026-04-26 07:47 33.93898 -118.40018 107 ft 10 kts 130°
2026-04-26 07:47 33.93887 -118.39932 109 ft 13 kts 85°
2026-04-26 07:47 33.93897 -118.39806 108 ft 17 kts 84°
2026-04-26 07:47 33.93912 -118.39658 108 ft 18 kts 82°
2026-04-26 07:48 33.93928 -118.39511 108 ft 18 kts 82°
2026-04-26 07:48 33.93943 -118.39363 106 ft 18 kts 84°
2026-04-26 07:48 33.93959 -118.39215 106 ft 18 kts 82°
2026-04-26 07:48 33.93974 -118.39069 106 ft 18 kts 83°
2026-04-26 07:49 33.93988 -118.38921 107 ft 18 kts 84°
2026-04-26 07:49 33.94003 -118.38773 107 ft 18 kts 83°
2026-04-26 07:49 33.94018 -118.38626 108 ft 18 kts 82°
2026-04-26 07:50 33.94049 -118.38332 108 ft 18 kts 82°
2026-04-26 07:50 33.94064 -118.38184 108 ft 18 kts 83°
2026-04-26 07:50 33.94072 -118.38052 108 ft 9 kts 95°
2026-04-26 07:50 33.94026 -118.38012 108 ft 9 kts 177°
2026-04-26 07:51 33.93985 -118.38064 112 ft 9 kts 251°
2026-04-26 07:51 33.93973 -118.38140 115 ft 10 kts 262°
2026-04-26 07:51 33.93957 -118.38290 113 ft 35 kts 262°
2026-04-26 07:51 33.93906 -118.38802 111 ft 99 kts 263°
2026-04-26 07:52 33.93794 -118.39929 127 ft 166 kts 262°
2026-04-26 07:52 33.93632 -118.41361 792 ft 172 kts 262°
2026-04-26 07:52 33.93671 -118.42756 1747 ft 170 kts 278°
2026-04-26 07:52 33.93806 -118.44244 2282 ft 191 kts 271°
2026-04-26 07:53 33.93781 -118.45971 2580 ft 221 kts 267°
2026-04-26 07:53 33.93765 -118.47899 2999 ft 241 kts 274°
2026-04-26 07:53 33.93860 -118.49939 3915 ft 244 kts 271°
2026-04-26 07:53 33.93886 -118.52005 4871 ft 247 kts 270°
2026-04-26 07:54 33.93854 -118.54090 5868 ft 249 kts 267°
2026-04-26 07:54 33.93763 -118.56170 6786 ft 253 kts 265°
2026-04-26 07:54 33.93628 -118.58301 7693 ft 256 kts 264°
2026-04-26 07:54 33.93470 -118.60453 8623 ft 259 kts 264°
2026-04-26 07:55 33.93303 -118.62628 9542 ft 263 kts 264°
2026-04-26 07:55 33.93132 -118.64815 10358 ft 268 kts 264°
2026-04-26 07:55 33.92951 -118.67153 10721 ft 294 kts 264°
2026-04-26 07:55 33.92752 -118.69721 10958 ft 323 kts 264°
2026-04-26 07:56 33.92538 -118.72472 11652 ft 335 kts 264°
2026-04-26 07:56 33.92320 -118.75281 12011 ft 340 kts 264°
2026-04-26 07:56 33.92097 -118.78143 11991 ft 342 kts 264°
2026-04-26 07:56 33.91876 -118.80962 11983 ft 340 kts 264°
2026-04-26 07:57 33.91670 -118.83787 11987 ft 339 kts 266°
2026-04-26 07:57 33.91693 -118.86653 12651 ft 343 kts 272°
2026-04-26 07:57 33.91826 -118.89544 13849 ft 346 kts 272°
2026-04-26 07:57 33.91953 -118.92448 14918 ft 348 kts 272°
2026-04-26 07:58 33.92055 -118.95378 16015 ft 351 kts 271°
2026-04-26 07:58 33.92143 -118.98290 17068 ft 354 kts 271°
2026-04-26 07:58 33.92402 -119.01243 17959 ft 359 kts 282°
2026-04-26 07:58 33.93373 -119.04072 18823 ft 368 kts 297°
2026-04-26 07:59 33.94731 -119.06666 19761 ft 371 kts 299°
2026-04-26 07:59 33.96140 -119.09292 20669 ft 375 kts 298°
2026-04-26 07:59 33.97552 -119.11965 21522 ft 380 kts 298°
2026-04-26 07:59 33.98963 -119.14683 22369 ft 384 kts 297°
2026-04-26 08:00 34.00398 -119.17422 23204 ft 388 kts 300°
2026-04-26 08:00 34.02221 -119.19847 23871 ft 404 kts 315°
2026-04-26 08:00 34.04526 -119.21851 24468 ft 411 kts 319°
2026-04-26 08:00 34.06896 -119.23830 25113 ft 415 kts 319°
2026-04-26 08:01 34.09283 -119.25828 25808 ft 418 kts 319°
2026-04-26 08:01 34.11680 -119.27851 26486 ft 422 kts 318°
2026-04-26 08:01 34.14089 -119.29903 27137 ft 425 kts 318°
2026-04-26 08:01 34.16510 -119.31978 27737 ft 429 kts 318°
2026-04-26 08:02 34.18934 -119.34066 28349 ft 434 kts 317°
2026-04-26 08:02 34.21409 -119.36201 28920 ft 438 kts 317°
2026-04-26 08:02 34.23899 -119.38352 29494 ft 442 kts 317°
2026-04-26 08:02 34.26418 -119.40528 30034 ft 446 kts 317°
2026-04-26 08:03 34.28923 -119.42695 30440 ft 449 kts 318°
2026-04-26 08:03 34.31484 -119.44910 30839 ft 453 kts 318°
2026-04-26 08:03 34.34064 -119.47141 31333 ft 453 kts 318°
2026-04-26 08:03 34.36622 -119.49355 31895 ft 452 kts 318°
2026-04-26 08:04 34.39184 -119.51575 32442 ft 452 kts 318°
2026-04-26 08:04 34.41685 -119.53809 32927 ft 449 kts 314°
2026-04-26 08:04 34.43979 -119.56346 33383 ft 445 kts 309°
2026-04-26 08:04 34.46145 -119.59029 33874 ft 444 kts 308°
2026-04-26 08:05 34.50382 -119.64470 33977 ft 444 kts 308°
2026-04-26 08:05 34.54668 -119.69897 33966 ft 445 kts 309°
2026-04-26 08:06 34.62244 -119.79281 33954 ft 444 kts 309°
2026-04-26 08:06 34.66126 -119.84075 33994 ft 443 kts 309°